{"data":{"norad_id":56080,"epoch":"2026-09-20T04:36:32.282784Z","epoch_age_seconds":44768,"freshness":"FRESH","line1":"1 56080U 23043AL  26263.19204031 -.00000076  00000+0 -23631-3 0  9992","line2":"2 56080  87.8983 240.2738 0002114  90.7175 269.4198 13.15548803170114","mean_motion":13.15548803,"eccentricity":0.0002114,"inclination_deg":87.8983,"raan_deg":240.2738,"arg_perigee_deg":90.7175,"mean_anomaly_deg":269.4198,"bstar":-0.00023631,"rev_number":17011,"period_min":109.46002130185,"perigee_km":1200.167403344,"apogee_km":1203.3721879372,"semimajor_km":7579.9067956406,"source":"CELESTRAK","updated_at":"2026-09-20T09:00:44.793845Z"}}